Date String (YYYY-MM-DD hh:mm:ss) UTC,Instrument flags,Ambient pressure (hPa),Sample flow (lpm),Bypass flow (lpm),Sample temperature (°C),Ambient temperature (°C),ASC tube jacket temperature (°C),LED temperature (°C),Box temperature (°C),Sample RH (%),Span deviation,Mass concentration (μg/m³),Mass concentration (μg/m³),Mass concentration (μg/m³)
DateTimeUTC,F1_M11,P_M11,Q1_M11,Q2_M11,T1_M11,T2_M11,T3_M11,T4_M11,T5_M11,U1_M11,ZSPAN_M11,X0_M11,X2_M11,X1_M11
2023-01-15 09:00:00,,0813.5,5.02,0.00,23.1,21.4,00.0,32.1,24.8,15.0,0000.0,0012.21,0009.50,0009.22
2023-01-15 09:01:00,,0813.5,5.01,0.00,23.1,21.4,00.0,32.1,24.7,15.1,0000.0,0012.66,0009.89,0009.61
2023-01-15 09:02:00,,0813.5,5.00,0.00,23.1,21.5,00.0,32.0,24.7,15.1,0000.0,0013.22,0010.34,0010.04
2023-01-15 09:03:00,,0813.4,5.00,0.00,23.1,21.4,00.0,32.0,24.8,15.1,0000.0,0013.83,0010.79,0010.49
2023-01-15 09:04:00,,0813.3,4.99,0.00,23.0,21.4,00.0,32.0,24.7,15.2,0000.0,0014.22,0011.16,0010.85
2023-01-15 09:05:00,,0813.3,5.00,0.00,23.0,21.4,00.0,32.0,24.7,15.1,0000.3,0014.50,0011.42,0011.10
2023-01-15 09:06:00,,0813.3,5.00,0.00,23.0,21.4,00.0,32.0,24.7,15.0,0000.4,0014.84,0011.49,0011.15
2023-01-15 09:07:00,,0813.2,5.01,0.00,23.0,21.5,00.0,32.0,24.7,14.9,0000.3,0014.97,0011.32,0010.97
2023-01-15 09:08:00,,0813.2,5.01,0.00,23.0,21.6,00.0,32.0,24.7,14.8,0000.3,0014.74,0011.10,0010.74
2023-01-15 09:09:00,,0813.1,5.01,0.00,23.0,21.6,00.0,32.0,24.7,14.7,0000.8,0014.52,0010.82,0010.45
2023-01-15 09:10:00,,0813.1,5.00,0.00,23.0,21.7,00.0,32.0,24.7,14.5,0000.1,0014.23,0010.52,0010.12
2023-01-15 09:11:00,,0813.2,5.00,0.00,23.0,21.7,00.0,31.9,24.8,14.4,-000.6,0013.99,0010.20,0009.80
2023-01-15 09:12:00,,0813.3,5.03,0.00,23.0,21.7,00.0,31.9,24.8,14.4,-000.9,0013.61,0009.79,0009.40
2023-01-15 09:13:00,,0813.3,4.98,0.00,23.0,21.7,00.0,31.9,24.8,14.3,-000.7,0013.01,0009.31,0008.97
2023-01-15 09:14:00,,0813.4,5.00,0.00,23.0,21.5,00.0,31.9,24.7,14.3,-000.6,0012.23,0008.80,0008.47
2023-01-15 09:15:00,,0813.4,5.02,0.00,23.0,21.3,00.0,31.9,24.6,14.5,-000.2,0011.75,0008.32,0008.00
2023-01-15 09:16:00,,0813.4,5.00,0.00,22.9,21.0,00.0,31.9,24.5,14.8,0000.2,0011.44,0007.98,0007.63
2023-01-15 09:17:00,,0813.4,5.01,0.00,22.9,20.9,00.0,31.9,24.4,14.9,0000.5,0011.07,0007.77,0007.39
2023-01-15 09:18:00,,0813.4,4.99,0.00,22.8,20.8,00.0,31.9,24.3,15.0,0000.4,0010.64,0007.66,0007.29
2023-01-15 09:19:00,,0813.5,5.00,0.00,22.7,20.7,00.0,31.9,24.3,15.0,0000.3,0010.66,0007.65,0007.26
2023-01-15 09:20:00,,0813.4,5.00,0.00,22.7,20.8,00.0,31.8,24.3,14.9,0000.4,0010.66,0007.61,0007.22
2023-01-15 09:21:00,,0813.3,5.01,0.00,22.7,20.9,00.0,31.8,24.2,15.1,0001.1,0010.97,0007.70,0007.31
2023-01-15 09:22:00,,0813.3,5.01,0.00,22.6,20.7,00.0,31.8,24.1,15.3,0000.0,0011.10,0007.87,0007.49
2023-01-15 09:23:00,,0813.3,5.00,0.00,22.6,20.6,00.0,31.7,24.1,15.2,0000.0,0011.10,0007.93,0007.54
2023-01-15 09:24:00,,0813.3,4.99,0.00,22.5,20.5,00.0,31.7,24.0,14.8,0000.0,0010.98,0007.85,0007.43
2023-01-15 09:25:00,,0813.3,5.00,0.00,22.4,20.4,00.0,31.7,24.0,14.7,0000.0,0010.85,0007.76,0007.33
2023-01-15 09:26:00,,0813.3,5.00,0.00,22.4,20.4,00.0,31.6,24.0,14.6,0000.0,0010.77,0007.68,0007.25
2023-01-15 09:27:00,,0813.4,4.99,0.00,22.4,20.5,00.0,31.6,24.0,14.6,0000.0,0010.66,0007.55,0007.11
2023-01-15 09:28:00,,0813.3,5.00,0.00,22.4,20.6,00.0,31.6,24.0,14.7,0000.0,0010.42,0007.33,0006.90
2023-01-15 09:29:00,,0813.5,4.99,0.00,22.4,20.8,00.0,31.5,24.1,14.9,0000.0,0010.34,0007.22,0006.78
2023-01-15 09:30:00,,0813.4,4.99,0.00,22.4,20.9,00.0,31.5,24.1,14.9,0000.0,0010.14,0007.07,0006.66
2023-01-15 09:31:00,,0813.4,4.97,0.00,22.5,21.0,00.0,31.5,24.1,14.8,0000.0,0009.87,0006.96,0006.58
2023-01-15 09:32:00,,0813.4,4.97,0.00,22.5,21.1,00.0,31.5,24.2,14.7,0000.0,0009.50,0006.79,0006.42
2023-01-15 09:33:00,,0813.3,4.97,0.00,22.5,21.1,00.0,31.5,24.2,14.7,0000.0,0009.24,0006.49,0006.14
2023-01-15 09:34:00,,0813.3,4.99,0.00,22.5,21.2,00.0,31.5,24.1,14.6,0000.0,0009.02,0006.30,0005.93
2023-01-15 09:35:00,,0813.3,5.00,0.00,22.5,21.2,00.0,31.5,24.2,14.5,0000.0,0008.94,0006.25,0005.90
2023-01-15 09:36:00,,0813.3,5.01,0.00,22.5,21.2,00.0,31.5,24.2,14.4,0000.0,0009.01,0006.27,0005.90
2023-01-15 09:37:00,,0813.2,4.98,0.00,22.5,21.3,00.0,31.5,24.2,14.4,0000.0,0009.12,0006.25,0005.88
2023-01-15 09:38:00,,0813.2,5.01,0.00,22.6,21.3,00.0,31.5,24.2,14.4,0000.0,0008.95,0006.18,0005.85
2023-01-15 09:39:00,,0813.1,5.02,0.00,22.6,21.3,00.0,31.5,24.3,14.4,0000.0,0008.91,0006.14,0005.83
2023-01-15 09:40:00,,0813.1,4.99,0.00,22.6,21.3,00.0,31.5,24.3,14.3,0000.0,0009.04,0006.06,0005.79
2023-01-15 09:41:00,,0813.1,5.01,0.00,22.6,21.3,00.0,31.5,24.3,14.3,0000.0,0009.17,0005.98,0005.74
2023-01-15 09:42:00,,0813.2,5.02,0.00,22.6,21.3,00.0,31.5,24.4,14.3,0000.0,0009.30,0005.96,0005.70
2023-01-15 09:43:00,,0813.1,5.00,0.00,22.6,21.3,00.0,31.5,24.3,14.3,0000.0,0009.33,0005.96,0005.67
2023-01-15 09:44:00,,0813.1,5.01,0.00,22.6,21.3,00.0,31.5,24.3,14.3,0000.0,0009.25,0005.95,0005.68
2023-01-15 09:45:00,,0813.1,4.98,0.00,22.6,21.3,00.0,31.5,24.3,14.2,0000.0,0009.23,0005.98,0005.73
2023-01-15 09:46:00,,0813.1,4.99,0.00,22.6,21.3,00.0,31.5,24.4,14.3,0000.0,0009.30,0006.03,0005.80
2023-01-15 09:47:00,,0813.1,5.01,0.00,22.6,21.3,00.0,31.5,24.3,14.2,0000.0,0009.39,0006.08,0005.84
2023-01-15 09:48:00,,0813.2,5.01,0.00,22.6,21.3,00.0,31.5,24.4,14.2,0000.0,0009.32,0006.10,0005.86
2023-01-15 09:49:00,,0813.0,5.00,0.00,22.6,21.3,00.0,31.5,24.4,14.2,0000.0,0009.34,0006.13,0005.89
2023-01-15 09:50:00,,0813.2,4.99,0.00,22.6,21.3,00.0,31.5,24.4,14.2,0000.0,0009.30,0006.14,0005.92
2023-01-15 09:51:00,,0813.2,5.01,0.00,22.6,21.3,00.0,31.5,24.3,14.1,0000.0,0009.07,0006.16,0005.93
2023-01-15 09:52:00,,0813.1,4.98,0.00,22.6,21.4,00.0,31.5,24.3,14.1,0000.5,0008.88,0006.18,0005.94
2023-01-15 09:53:00,,0813.2,5.00,0.00,22.6,21.4,00.0,31.5,24.4,14.1,0001.7,0008.80,0006.20,0005.96
2023-01-15 09:54:00,,0813.2,4.98,0.00,22.6,21.4,00.0,31.5,24.4,14.0,0001.7,0008.74,0006.18,0005.96
2023-01-15 09:55:00,,0813.1,5.01,0.00,22.7,21.4,00.0,31.5,24.4,14.0,0001.7,0008.78,0006.18,0005.97
2023-01-15 09:56:00,,0813.0,4.99,0.00,22.7,21.4,00.0,31.5,24.4,14.1,0002.2,0008.80,0006.18,0005.96
2023-01-15 09:57:00,,0813.0,5.00,0.00,22.7,21.4,00.0,31.5,24.4,14.2,0001.4,0008.73,0006.15,0005.94
2023-01-15 09:58:00,,0813.0,5.01,0.00,22.7,21.4,00.0,31.5,24.4,14.1,0002.1,0008.58,0006.09,0005.90
2023-01-15 09:59:00,,0813.1,5.00,0.00,22.7,21.4,00.0,31.5,24.4,14.1,0002.8,0008.54,0006.07,0005.89
